SES-5

operational
NORAD ID: 38652 Int'l Des: 2012-036 Owner: SESS/SESSAN Country: S
HEOCIRCULARGSOGEO

Über SES-5

Beschreibung wird geladen...

Live-Position

3D-Globus wird geladen...

Nächste Überflüge

Höhenverlauf

Altitude vs Time

uPlot chart will show altitude changes over time

Zweizeiliger Elementsatz

1 38652U 12036A 26062.15959362 .00000018 00000-0 00000+0 0 9990
2 38652 0.0623 308.3085 0002013 28.3836 246.6545 1.00271204 43398
Epoch: 3. März 2026 • Age: 29 hours

Aktueller Status

Höhe 35786.1 km
Geschwindigkeit 3.07 km/s
Subsatellitenpunkt -0.01°S, 4.96°E
Startdatum 9. Juli 2012
Alter 13.6 years
Typ communications

Technische Details

Klassifizierung Payload
Masse 6007.00 kg
Trockenmasse 4000.00 kg
Gesamtmasse 6007.00 kg
Länge 7.00 m
Durchmesser 2.40 m
Spannweite 27.00 m
Form Box + 2 pan
Hersteller LOR
Bus-Typ SSL-1300
Phasenstatus In Orbit
Besitzer/Staat SESS/SESSAN/S

Große Konstellationen

Loading constellations...